Weather History for KCSM - August, 2014

Change the Weather History Date:

Tuesday, August 26, 2014

  Actual Average Record
Temperature  
Mean Temperature 87 °F -  
Max Temperature 100 °F 91 °F 102 °F (1999)
Min Temperature 75 °F 68 °F 57 °F (2010)
Cooling Degree Days 22    
Growing Degree Days 37 (Base 50)    
Moisture  
Dew Point 60 °F    
Average Humidity 40    
Maximum Humidity 67    
Minimum Humidity 23    
Precipitation  
Precipitation 0.00 in - - ()
Sea Level Pressure  
Sea Level Pressure 29.98 in    
Wind  
Wind Speed 12 mph (SE)    
Max Wind Speed 18 mph    
Max Gust Speed 24 mph    
Visibility 10 miles    
Events      
Averages and records for this station are not official NWS values.
T = Trace of Precipitation, MM = Missing Value Source: NWS Daily Summary

Daily Weather History Graph

Daily Weather History Graph

Search for Another Location

Airport or City:

Trip Planner

Search our weather history database for the weather conditions in past years. The results will help you decide how hot, cold, wet, or windy it might be!

Date:

Astronomy

Aug. 26, 2014 Rise Set
Actual Time 7:04 AM CDT 8:11 PM CDT
Civil Twilight 6:38 AM CDT 8:38 PM CDT
Nautical Twilight 6:07 AM CDT 9:09 PM CDT
Astronomical Twilight 5:34 AM CDT 9:41 PM CDT
Moon 8:02 AM CDT (8/26) 8:38 PM CDT (8/26)
Length of Visible Light 13h 59m
Length of Day
13h 07m
New Moon, 1% of the Moon is Illuminated
Aug 26
New Moon
Sep 2
First Quarter
Sep 8
Full
Sep 15
Last Quarter
Sep 24
New

Hourly Weather History & Observations

Time (CDT) Temp. Heat Index Dew Point Humidity Pressure Visibility Wind Dir Wind Speed Gust Speed Precip Events Conditions
12:53 AM 86.0 °F 86.3 °F 62.1 °F 44% 29.94 in 10.0 mi SSE 16.1 mph - N/A   Clear
1:53 AM 84.9 °F 85.4 °F 62.1 °F 46% 29.95 in 10.0 mi SSE 15.0 mph - N/A   Clear
2:53 AM 84.0 °F 84.5 °F 62.1 °F 47% 29.97 in 10.0 mi West 5.8 mph - N/A   Clear
4:53 AM 78.1 °F - 64.0 °F 62% 29.99 in 10.0 mi NNW 6.9 mph - N/A   Partly Cloudy
5:53 AM 75.9 °F - 64.0 °F 67% 29.99 in 10.0 mi NNE 5.8 mph - N/A   Clear
7:53 AM 77.0 °F - 63.0 °F 62% 30.02 in 10.0 mi East 9.2 mph - N/A   Clear
8:53 AM 80.1 °F 81.5 °F 63.0 °F 56% 30.04 in 10.0 mi ESE 9.2 mph - N/A   Clear
9:53 AM 86.0 °F 87.3 °F 64.0 °F 48% 30.03 in 10.0 mi SSE 11.5 mph - N/A   Clear
10:53 AM 91.0 °F 91.5 °F 62.1 °F 38% 30.04 in 10.0 mi South 11.5 mph - N/A   Clear
11:53 AM 93.9 °F 93.6 °F 60.1 °F 32% 30.03 in 10.0 mi SSE 13.8 mph 19.6 mph N/A   Clear
12:53 PM 96.1 °F 95.6 °F 59.0 °F 29% 30.01 in 10.0 mi South 9.2 mph - N/A   Clear
1:53 PM 98.1 °F 97.7 °F 59.0 °F 27% 29.99 in 10.0 mi SSE 12.7 mph 17.3 mph N/A   Clear
2:53 PM 96.1 °F 94.8 °F 57.0 °F 27% 29.97 in 10.0 mi ESE 10.4 mph 17.3 mph N/A   Partly Cloudy
4:23 PM 98.6 °F 97.2 °F 55.4 °F 24% 30.02 in 10.0 mi ESE 13.8 mph 21.9 mph N/A   Partly Cloudy
4:53 PM 97.0 °F 95.0 °F 55.0 °F 24% 29.92 in 10.0 mi ESE 11.5 mph - N/A   Partly Cloudy
5:53 PM 99.0 °F 97.3 °F 55.0 °F 23% 29.91 in 10.0 mi SE 18.4 mph 24.2 mph N/A   Scattered Clouds
6:53 PM 97.0 °F 95.3 °F 55.9 °F 25% 29.92 in 10.0 mi SE 18.4 mph 24.2 mph N/A   Clear
7:53 PM 93.0 °F 92.3 °F 59.0 °F 32% 29.94 in 10.0 mi ESE 15.0 mph 20.7 mph N/A   Partly Cloudy
8:53 PM 90.0 °F 90.0 °F 61.0 °F 38% 29.96 in 10.0 mi ESE 12.7 mph - N/A   Mostly Cloudy
9:53 PM 88.0 °F 87.9 °F 61.0 °F 40% 29.99 in 10.0 mi ESE 11.5 mph - N/A   Clear
10:53 PM 86.0 °F 86.8 °F 63.0 °F 46% 30.00 in 10.0 mi SE 12.7 mph - N/A   Clear
11:53 PM 84.9 °F 85.9 °F 63.0 °F 48% 30.00 in 10.0 mi SE 13.8 mph - N/A   Clear